^^
Station Historical Data
 
Daily Summary for October 19, 2018 Units:  English    Metric   Both
Next Day »
Daily Weekly Monthly Yearly Custom
  Current: High: Low: Average:
Temperature: 75.7 °F 87.6 °F 56.8 °F 70.7 °F
Dew Point: 55.2 °F 57.7 °F 50.5 °F 53.2 °F
Humidity: 49% 80% 32% 57%
Wind Speed: 2mph 5.8mph 0mph 2.2mph
Wind Gust: 4mph 4mph - -
WindNNE - - ESE
Pressure: 29.9 in 30 in 29.8 in -
Precipitation: 0 in      
Historical Graphs
 
 
Tabular Data for October 19, 2018
Time Temperature Dew Point Pressure Wind Wind Speed Wind Gust Humidity Rainfall Rate (Hourly) solar Conditions
00:04 61.7 °F 50.5 °F 29.9 in NE 3.5 mph 1.3 mph 67% 0 in 0.00 W/m2 CLR
00:09 61.9 °F 50.7 °F 29.9 in NE 3.5 mph 0.5 mph 67% 0 in 0.00 W/m2 CLR
00:14 61.9 °F 50.7 °F 29.9 in NE 1.2 mph 0.7 mph 67% 0 in 0.00 W/m2 CLR
00:19 61.9 °F 51.1 °F 29.9 in Calm     68% 0 in 0.00 W/m2 CLR
00:24 61.9 °F 51.1 °F 29.9 in Calm     68% 0 in 0.00 W/m2 CLR
00:29 61.5 °F 51.3 °F 29.9 in NE 2.3 mph   69% 0 in 0.00 W/m2 CLR
00:34 61.3 °F 51.1 °F 30 in NE 2.3 mph 0.4 mph 69% 0 in 0.00 W/m2 CLR
00:39 61.2 °F 51.3 °F 30 in NE 2.3 mph 0.5 mph 70% 0 in 0.00 W/m2 CLR
00:44 61 °F 51.4 °F 30 in NE 1.2 mph 0.2 mph 71% 0 in 0.00 W/m2 CLR
00:49 60.6 °F 51.1 °F 30 in NE 2.3 mph 0.5 mph 71% 0 in 0.00 W/m2 CLR
00:54 60.4 °F 51.3 °F 30 in NE 2.3 mph 0.6 mph 72% 0 in 0.00 W/m2 CLR
00:59 60.1 °F 51.1 °F 30 in NE 2.3 mph 1.5 mph 72% 0 in 0.00 W/m2 CLR
01:04 59.9 °F 51.3 °F 30 in NE 2.3 mph   73% 0 in 0.00 W/m2 CLR
01:09 59.7 °F 51.1 °F 30 in ENE 1.2 mph 0.3 mph 73% 0 in 0.00 W/m2 CLR
01:14 59.7 °F 51.1 °F 30 in ENE 1.2 mph   73% 0 in 0.00 W/m2 CLR
01:19 59.5 °F 51.3 °F 30 in ENE 2.3 mph 0.3 mph 74% 0 in 0.00 W/m2 CLR
01:24 59.5 °F 51.3 °F 30 in ENE 2.3 mph 0.4 mph 74% 0 in 0.00 W/m2 CLR
01:29 59.4 °F 51.1 °F 30 in ENE 2.3 mph 0.3 mph 74% 0 in 0.00 W/m2 CLR
01:34 59.4 °F 51.1 °F 30 in NE 2.3 mph 0.1 mph 74% 0 in 0.00 W/m2 CLR
01:39 59.4 °F 51.1 °F 30 in ENE 2.3 mph   74% 0 in 0.00 W/m2 CLR
01:44 59.4 °F 51.1 °F 30 in ENE 1.2 mph   74% 0 in 0.00 W/m2 CLR
01:49 59.4 °F 51.1 °F 30 in East 3 mph 0.5 mph 74% 0 in 0.00 W/m2 CLR
01:54 59.4 °F 51.1 °F 30 in SE 3.5 mph 0.6 mph 74% 0 in 0.00 W/m2 CLR
01:59 59.4 °F 51.1 °F 30 in Calm     74% 0 in 0.00 W/m2 CLR
02:04 59.4 °F 51.1 °F 30 in ENE 2.3 mph 1.4 mph 74% 0 in 0.00 W/m2 CLR
02:09 59.5 °F 50.7 °F 30 in ESE 2.3 mph 0.6 mph 73% 0 in 0.00 W/m2 CLR
02:14 59.5 °F 50.9 °F 30 in East 1.2 mph 0.7 mph 73% 0 in 0.00 W/m2 CLR
02:19 59.5 °F 50.9 °F 30 in East 1.2 mph 0.6 mph 73% 0 in 0.00 W/m2 CLR
02:24 59.5 °F 50.9 °F 29.9 in NE 2.3 mph 0.1 mph 73% 0 in 0.00 W/m2 CLR
02:29 59.5 °F 51.3 °F 29.9 in NNE 1.2 mph 0.1 mph 74% 0 in 0.00 W/m2 CLR
02:34 59.4 °F 51.1 °F 29.9 in NNE 1.2 mph 0.5 mph 74% 0 in 0.00 W/m2 CLR
02:39 59.4 °F 51.1 °F 29.9 in ENE 1.2 mph 0.6 mph 74% 0 in 0.00 W/m2 CLR
02:44 59.2 °F 50.7 °F 29.9 in ENE 2.3 mph 0.5 mph 74% 0 in 0.00 W/m2 CLR
02:49 59.2 °F 51.3 °F 29.9 in ENE 3 mph 0.7 mph 75% 0 in 0.00 W/m2 CLR
02:54 58.8 °F 51.1 °F 29.9 in NE 3 mph 0.5 mph 75% 0 in 0.00 W/m2 CLR
02:59 58.8 °F 50.9 °F 29.9 in NE 1 mph 0.6 mph 75% 0 in 0.00 W/m2 CLR
03:04 58.6 °F 51.3 °F 29.9 in NE 2.3 mph 0.4 mph 76% 0 in 0.00 W/m2 CLR
03:09 58.6 °F 51.3 °F 29.9 in NE 2.3 mph 0.6 mph 76% 0 in 0.00 W/m2 CLR
03:14 58.6 °F 51.1 °F 29.9 in NE 2 mph 1.6 mph 76% 0 in 0.00 W/m2 CLR
03:19 58.5 °F 51.1 °F 29.9 in NE 1.2 mph   76% 0 in 0.00 W/m2 CLR
03:24 58.5 °F 50.9 °F 29.9 in NE 1.2 mph 0.2 mph 76% 0 in 0.00 W/m2 CLR
03:29 58.3 °F 50.7 °F 29.9 in NE 1.2 mph 0.2 mph 76% 0 in 0.00 W/m2 CLR
03:34 58.3 °F 51.1 °F 29.9 in Calm     77% 0 in 0.00 W/m2 CLR
03:39 57.9 °F 50.7 °F 29.9 in NE 2.3 mph 1.1 mph 77% 0 in 0.00 W/m2 CLR
03:44 57.9 °F 50.7 °F 29.9 in NE 1.2 mph 0.2 mph 77% 0 in 0.00 W/m2 CLR
03:49 57.7 °F 51.1 °F 29.9 in NE 1.2 mph   78% 0 in 0.00 W/m2 CLR
03:54 57.7 °F 50.9 °F 29.9 in NE 1.2 mph   78% 0 in 0.00 W/m2 CLR
03:59 57.6 °F 50.7 °F 29.9 in NE 1.2 mph 0.1 mph 78% 0 in 0.00 W/m2 CLR
04:04 57.6 °F 50.7 °F 29.9 in NE 1 mph 0.1 mph 78% 0 in 0.00 W/m2 CLR
04:09 57.4 °F 50.7 °F 29.9 in NE 2.3 mph 0.5 mph 79% 0 in 0.00 W/m2 CLR
04:14 57.4 °F 50.7 °F 29.9 in NE 2.3 mph 0.2 mph 79% 0 in 0.00 W/m2 CLR
04:19 57.2 °F 50.7 °F 29.9 in NE 1.2 mph 0.3 mph 79% 0 in 0.00 W/m2 CLR
04:24 57 °F 51.1 °F 29.9 in ENE 2.3 mph 0.1 mph 80% 0 in 0.00 W/m2 CLR
04:29 57 °F 51.1 °F 29.9 in NE 1.2 mph 0.3 mph 80% 0 in 0.00 W/m2 CLR
04:34 57 °F 50.9 °F 29.9 in Calm   0.1 mph 80% 0 in 0.00 W/m2 CLR
04:39 57 °F 50.9 °F 29.9 in NNE 2.3 mph 0.4 mph 80% 0 in 0.00 W/m2 CLR
04:44 56.8 °F 50.7 °F 29.9 in NE 3.5 mph 0.7 mph 80% 0 in 0.00 W/m2 CLR
04:49 56.8 °F 50.7 °F 29.9 in East 3.5 mph 0.7 mph 80% 0 in 0.00 W/m2 CLR
04:54 56.8 °F 50.7 °F 29.9 in East 4.6 mph 1.3 mph 80% 0 in 0.00 W/m2 CLR
04:59 57 °F 51.1 °F 29.9 in NNE 2.3 mph 0.2 mph 80% 0 in 0.00 W/m2 CLR
05:04 57.2 °F 51.1 °F 29.9 in East 3.5 mph 0.9 mph 80% 0 in 0.00 W/m2 CLR
05:09 57.4 °F 50.7 °F 30 in East 3.5 mph 1.1 mph 79% 0 in 0.00 W/m2 CLR
05:14 57.7 °F 51.3 °F 30 in NE 5.8 mph 3.2 mph 79% 0 in 0.00 W/m2 CLR
05:19 58.1 °F 51.3 °F 30 in NE 3 mph 1 mph 78% 0 in 0.00 W/m2 CLR
05:24 58.5 °F 51.3 °F 30 in NNE 4.6 mph 0.8 mph 77% 0 in 0.00 W/m2 CLR
05:29 58.6 °F 51.1 °F 30 in NNE 2.3 mph 1.8 mph 76% 0 in 0.00 W/m2 CLR
05:34 58.6 °F 51.3 °F 30 in ENE 4 mph 2.2 mph 76% 0 in 0.00 W/m2 CLR
05:39 58.6 °F 51.3 °F 30 in NNE 3.5 mph 1.1 mph 76% 0 in 0.00 W/m2 CLR
05:44 58.6 °F 51.1 °F 30 in NNE 2.3 mph 0.2 mph 76% 0 in 0.00 W/m2 CLR
05:49 58.5 °F 51.1 °F 30 in East 2.3 mph 0.5 mph 76% 0 in 0.00 W/m2 CLR
05:54 58.3 °F 51.1 °F 30 in East 1.2 mph   77% 0 in 0.00 W/m2 CLR
05:59 57.9 °F 50.7 °F 30 in NNE 3.5 mph 1.5 mph 77% 0 in 0.00 W/m2 CLR
06:04 57.7 °F 51.1 °F 30 in ENE 3.5 mph 1 mph 78% 0 in 0.00 W/m2 CLR
06:09 57.6 °F 50.7 °F 30 in NNE 3.5 mph 1.3 mph 78% 0 in 0.00 W/m2 CLR
06:14 57.6 °F 50.7 °F 30 in NNE 5 mph 1.3 mph 78% 0 in 0.00 W/m2 CLR
06:19 57.4 °F 50.7 °F 30 in NE 3.5 mph 1.4 mph 79% 0 in 0.00 W/m2 CLR
06:24 57.4 °F 50.7 °F 30 in NE 2.3 mph 0.8 mph 79% 0 in 0.00 W/m2 CLR
06:29 57.2 °F 50.7 °F 30 in NE 3.5 mph 1.5 mph 79% 0 in 0.00 W/m2 CLR
06:34 57.4 °F 50.7 °F 30 in NE 3.5 mph 1.4 mph 79% 0 in 5.00 W/m2 CLR
06:39 57.6 °F 50.7 °F 30 in NNE 3.5 mph 1.4 mph 78% 0 in 7.00 W/m2 CLR
06:44 57.7 °F 50.9 °F 30 in NE 3.5 mph 1.1 mph 78% 0 in 11.00 W/m2 CLR
06:49 57.7 °F 51.1 °F 30 in NNE 2 mph 0.7 mph 78% 0 in 14.00 W/m2 CLR
06:54 57.7 °F 51.1 °F 30 in NE 2.3 mph 1.2 mph 78% 0 in 21.00 W/m2 CLR
06:59 57.7 °F 51.1 °F 30 in East 3.5 mph 1.3 mph 78% 0 in 49.00 W/m2 CLR
07:04 57.9 °F 51.3 °F 30 in NE 2.3 mph 0.8 mph 78% 0 in 67.00 W/m2 CLR
07:09 58.5 °F 51.3 °F 30 in NNE 3.5 mph 2.1 mph 77% 0 in 83.00 W/m2 CLR
07:14 59 °F 51.4 °F 30 in NE 3.5 mph 1.7 mph 76% 0 in 102.00 W/m2 CLR
07:19 59.5 °F 52 °F 30 in NE 1.2 mph 1.1 mph 76% 0 in 125.00 W/m2 CLR
07:24 60.1 °F 52.2 °F 30 in NE 2.3 mph 0.8 mph 75% 0 in 148.00 W/m2 CLR
07:29 60.6 °F 52 °F 30 in ENE 4.6 mph 2.1 mph 73% 0 in 169.00 W/m2 CLR
07:34 61.2 °F 52.2 °F 30 in ENE 3.5 mph 1.3 mph 72% 0 in 192.00 W/m2 CLR
07:39 61.7 °F 52.2 °F 30 in NNE 4.6 mph 1.1 mph 71% 0 in 199.00 W/m2 CLR
07:44 62.2 °F 52.3 °F 30 in NE 3.5 mph 0.4 mph 70% 0 in 237.00 W/m2 CLR
07:49 62.8 °F 52.9 °F 30 in NE 1.2 mph 1 mph 70% 0 in 241.00 W/m2 CLR
07:54 63.1 °F 52.9 °F 30 in NNE 2.3 mph 0.4 mph 69% 0 in 279.00 W/m2 CLR
07:59 63.7 °F 53.2 °F 30 in NNE 3.5 mph 1.5 mph 69% 0 in 299.00 W/m2 CLR
08:04 64.2 °F 53.1 °F 30 in NE 3.5 mph 1.3 mph 67% 0 in 316.00 W/m2 CLR
08:09 64.6 °F 53.4 °F 30 in NE 3.5 mph 0.3 mph 67% 0 in 334.00 W/m2 CLR
08:14 64.9 °F 53.4 °F 30 in NNE 1.2 mph 0.1 mph 66% 0 in 350.00 W/m2 CLR
08:19 65.3 °F 53.6 °F 30 in NNE 1.2 mph 0.2 mph 66% 0 in 367.00 W/m2 CLR
08:24 65.8 °F 53.2 °F 30 in ENE 3.5 mph 1 mph 64% 0 in 383.00 W/m2 CLR
08:29 66.2 °F 53.8 °F 30 in NE 3.5 mph 0.3 mph 64% 0 in 401.00 W/m2 CLR
08:34 66.7 °F 53.8 °F 30 in ESE 3.5 mph 0.4 mph 63% 0 in 417.00 W/m2 CLR
08:39 67.1 °F 53.6 °F 30 in SE 2.3 mph 1.6 mph 62% 0 in 434.00 W/m2 CLR
08:44 67.6 °F 53.8 °F 30 in SE 2.3 mph 1.3 mph 61% 0 in 452.00 W/m2 CLR
08:49 68 °F 53.1 °F 30 in SE 3.5 mph 1.2 mph 59% 0 in 464.00 W/m2 CLR
08:54 68.4 °F 52.9 °F 30 in SSE 3.5 mph 1.4 mph 58% 0 in 478.00 W/m2 CLR
08:59 68.5 °F 53.1 °F 30 in SSE 2.3 mph 1 mph 58% 0 in 494.00 W/m2 CLR
09:04 68.5 °F 53.2 °F 30 in SE 2.3 mph 0.6 mph 58% 0 in 510.00 W/m2 CLR
09:09 68.5 °F 53.2 °F 30 in ENE 2.3 mph 0.4 mph 58% 0 in 524.00 W/m2 CLR
09:14 68.5 °F 53.2 °F 30 in SE 3.5 mph 0.9 mph 58% 0 in 538.00 W/m2 CLR
09:19 68.7 °F 53.4 °F 30 in ESE 1.2 mph 0.4 mph 58% 0 in 550.00 W/m2 CLR
09:24 69.3 °F 53.2 °F 30 in SSW 3.5 mph 0.7 mph 57% 0 in 566.00 W/m2 CLR
09:29 69.4 °F 53.4 °F 30 in SSW 3.5 mph 1.3 mph 57% 0 in 577.00 W/m2 CLR
09:34 69.4 °F 53.4 °F 30 in SSE 2 mph 0.2 mph 57% 0 in 589.00 W/m2 CLR
09:39 69.4 °F 53.4 °F 30 in South 1.2 mph 0.4 mph 57% 0 in 601.00 W/m2 CLR
09:45 69.6 °F 53.8 °F 30 in Calm   2 mph 57% 0 in 613.00 W/m2 CLR
09:49 70.2 °F 53.8 °F 30 in SSW 2.3 mph 0.7 mph 56% 0 in 626.00 W/m2 CLR
09:54 70.3 °F 54 °F 30 in South 2.3 mph 0.6 mph 56% 0 in 636.00 W/m2 CLR
09:59 70.9 °F 53.8 °F 30 in ENE 2.3 mph 0.4 mph 55% 0 in 647.00 W/m2 CLR
10:04 71.2 °F 54.1 °F 30 in NE 2.3 mph 0.6 mph 55% 0 in 657.00 W/m2 CLR
10:09 71.8 °F 54.1 °F 30 in ENE 2.3 mph 0.4 mph 54% 0 in 666.00 W/m2 CLR
10:14 72.1 °F 54.7 °F 30 in ENE 1.2 mph 0.1 mph 54% 0 in 677.00 W/m2 CLR
10:19 72.9 °F 54.7 °F 30 in SE 3.5 mph 2 mph 53% 0 in 687.00 W/m2 CLR
10:24 73 °F 54.9 °F 30 in SSE 1.2 mph 0.2 mph 53% 0 in 696.00 W/m2 CLR
10:29 73.6 °F 54.9 °F 30 in ESE 2.3 mph 0.8 mph 52% 0 in 705.00 W/m2 CLR
10:34 73.8 °F 54.3 °F 30 in NE 2.3 mph 0.2 mph 51% 0 in 712.00 W/m2 CLR
10:39 74.5 °F 54.5 °F 30 in ESE 3.5 mph 1.1 mph 50% 0 in 722.00 W/m2 CLR
10:44 75 °F 54.7 °F 30 in ESE 1.2 mph 0.3 mph 49% 0 in 729.00 W/m2 CLR
10:49 75.6 °F 54.3 °F 30 in NNE 2 mph 1.1 mph 48% 0 in 737.00 W/m2 CLR
10:54 75.9 °F 54.3 °F 30 in NE 1.2 mph   47% 0 in 742.00 W/m2 CLR
10:59 76.5 °F 54.1 °F 30 in North 2.3 mph 1.1 mph 46% 0 in 745.00 W/m2 CLR
11:04 77 °F 54.7 °F 30 in ENE 1.2 mph 0.7 mph 46% 0 in 754.00 W/m2 CLR
11:09 77.4 °F 54.3 °F 30 in ENE 2.3 mph 0.1 mph 45% 0 in 758.00 W/m2 CLR
11:15 77.7 °F 54.7 °F 29.9 in Calm   2 mph 45% 0 in 761.00 W/m2 CLR
11:19 78.1 °F 54.9 °F 29.9 in ESE 3.5 mph 0.3 mph 45% 0 in 766.00 W/m2 CLR
11:24 78.1 °F 55 °F 29.9 in NE 2.3 mph 0.8 mph 45% 0 in 768.00 W/m2 CLR
11:29 78.1 °F 54.3 °F 29.9 in NE 3.5 mph 1 mph 44% 0 in 773.00 W/m2 CLR
11:34 78.3 °F 54.5 °F 29.9 in ESE 3.5 mph 1.4 mph 44% 0 in 775.00 W/m2 CLR
11:39 78.4 °F 55.2 °F 29.9 in ESE 3.5 mph   45% 0 in 777.00 W/m2 CLR
11:44 78.8 °F 55 °F 29.9 in NE 1.2 mph 0.1 mph 44% 0 in 780.00 W/m2 CLR
11:49 79.3 °F 54.9 °F 29.9 in SSE 1.2 mph 0.6 mph 43% 0 in 782.00 W/m2 CLR
11:55 79.3 °F 54.9 °F 29.9 in NE 2 mph 4 mph 43% 0 in 782.00 W/m2 CLR
11:59 79.7 °F 55.2 °F 29.9 in NE 1.2 mph 0.1 mph 43% 0 in 786.00 W/m2 CLR
12:04 80.1 °F 54.9 °F 29.9 in ESE 2.3 mph 1.7 mph 42% 0 in 786.00 W/m2 CLR
12:09 80.1 °F 54.9 °F 29.9 in East 1.2 mph 0.1 mph 42% 0 in 786.00 W/m2 CLR
12:14 80.4 °F 55.9 °F 29.9 in SSW 2.3 mph 0.9 mph 43% 0 in 786.00 W/m2 CLR
12:19 80.8 °F 54.9 °F 29.9 in SSW 3.5 mph 1.5 mph 41% 0 in 782.00 W/m2 CLR
12:24 81 °F 54.3 °F 29.9 in SW 3.5 mph 2.1 mph 40% 0 in 782.00 W/m2 CLR
12:29 80.8 °F 54.9 °F 29.9 in SW 2.3 mph 1.6 mph 41% 0 in 779.00 W/m2 CLR
12:35 80.8 °F 55.6 °F 29.9 in SW 1 mph 3 mph 42% 0 in 777.00 W/m2 CLR
12:39 81 °F 55.8 °F 29.9 in North 3.5 mph 1.5 mph 42% 0 in 773.00 W/m2 CLR
12:44 80.8 °F 54.9 °F 29.9 in North 3.5 mph 0.6 mph 41% 0 in 768.00 W/m2 CLR
12:49 81 °F 55.8 °F 29.9 in NW 1.2 mph 0.7 mph 42% 0 in 766.00 W/m2 CLR
12:54 81.9 °F 55.9 °F 29.9 in SW 3.5 mph 1.1 mph 41% 0 in 763.00 W/m2 CLR
12:59 82.4 °F 56.3 °F 29.9 in West 2.3 mph 0.1 mph 41% 0 in 756.00 W/m2 CLR
13:04 82.8 °F 55.2 °F 29.9 in NNE 3.5 mph 2.3 mph 39% 0 in 752.00 W/m2 CLR
13:09 82.8 °F 55.9 °F 29.9 in WNW 1.2 mph 0.6 mph 40% 0 in 745.00 W/m2 CLR
13:14 82.6 °F 55 °F 29.9 in NE 2.3 mph 1.8 mph 39% 0 in 738.00 W/m2 CLR
13:19 82.6 °F 55 °F 29.9 in NE 1.2 mph 0.3 mph 39% 0 in 733.00 W/m2 CLR
13:24 82.6 °F 55.8 °F 29.9 in NNE 3.5 mph 2.7 mph 40% 0 in 726.00 W/m2 CLR
13:29 82.2 °F 55.6 °F 29.9 in NNE 3.5 mph 1 mph 40% 0 in 721.00 W/m2 CLR
13:34 82.8 °F 55.9 °F 29.9 in West 1 mph 1.6 mph 40% 0 in 710.00 W/m2 CLR
13:39 83.5 °F 55.2 °F 29.9 in WNW 2.3 mph 0.6 mph 38% 0 in 701.00 W/m2 CLR
13:44 84 °F 55.8 °F 29.9 in ESE 2.3 mph 1.2 mph 38% 0 in 693.00 W/m2 CLR
13:49 84.2 °F 55 °F 29.9 in NE 3.5 mph 0.3 mph 37% 0 in 682.00 W/m2 CLR
13:54 84.4 °F 55.2 °F 29.9 in NE 3.5 mph 0.1 mph 37% 0 in 671.00 W/m2 CLR
13:59 84.6 °F 55.4 °F 29.9 in ENE 1.2 mph 0.2 mph 37% 0 in 663.00 W/m2 CLR
14:05 84.9 °F 56.5 °F 29.9 in NE 2 mph 4 mph 38% 0 in 650.00 W/m2 CLR
14:09 84.9 °F 56.5 °F 29.9 in WNW 3.5 mph 0.3 mph 38% 0 in 640.00 W/m2 CLR
14:15 85.5 °F 57.7 °F 29.9 in NW 1 mph 4 mph 39% 0 in 629.00 W/m2 CLR
14:19 86 °F 55.9 °F 29.9 in West 2.3 mph 0.4 mph 36% 0 in 621.00 W/m2 CLR
14:24 86.2 °F 56.1 °F 29.9 in NNW 3.5 mph 2.8 mph 36% 0 in 608.00 W/m2 CLR
14:29 86.4 °F 56.3 °F 29.9 in North 1.2 mph 0.2 mph 36% 0 in 594.00 W/m2 CLR
14:35 86.4 °F 55.6 °F 29.9 in Calm   2 mph 35% 0 in 582.00 W/m2 CLR
14:39 86.5 °F 55.8 °F 29.9 in Calm   0.8 mph 35% 0 in 573.00 W/m2 CLR
14:44 86.7 °F 55.9 °F 29.9 in NW 3.5 mph 1.6 mph 35% 0 in 561.00 W/m2 CLR
14:49 87.3 °F 56.1 °F 29.9 in WNW 2.3 mph 1 mph 35% 0 in 550.00 W/m2 CLR
14:54 87.6 °F 56.7 °F 29.9 in SSW 1.2 mph 0.3 mph 35% 0 in 534.00 W/m2 CLR
14:59 87.4 °F 55.8 °F 29.9 in SSW 4.6 mph 2.6 mph 34% 0 in 520.00 W/m2 CLR
15:04 87.4 °F 56.5 °F 29.9 in West 3.5 mph 2.3 mph 35% 0 in 506.00 W/m2 CLR
15:09 87.6 °F 55.8 °F 29.9 in NNE 2.3 mph 0.6 mph 34% 0 in 489.00 W/m2 CLR
15:15 87.6 °F 55.9 °F 29.9 in Calm   3 mph 34% 0 in 469.00 W/m2 CLR
15:19 87.4 °F 55.6 °F 29.9 in North 3.5 mph 1 mph 34% 0 in 459.00 W/m2 CLR
15:25 87.3 °F 55.6 °F 29.9 in North 1 mph 4 mph 34% 0 in 439.00 W/m2 CLR
15:29 86.9 °F 55.2 °F 29.8 in NE 3.5 mph 0.2 mph 34% 0 in 422.00 W/m2 CLR
15:34 86.7 °F 55 °F 29.8 in North 2 mph 1 mph 34% 0 in 406.00 W/m2 CLR
15:39 86.5 °F 55.6 °F 29.8 in North 1.2 mph 0.1 mph 35% 0 in 392.00 W/m2 CLR
15:45 86.7 °F 55.8 °F 29.8 in North 1 mph 2 mph 35% 0 in 376.00 W/m2 CLR
15:49 86.7 °F 55.9 °F 29.8 in WNW 3.5 mph 0.3 mph 35% 0 in 359.00 W/m2 CLR
15:55 86.9 °F 55.2 °F 29.8 in Calm   4 mph 34% 0 in 343.00 W/m2 CLR
15:59 87.1 °F 55.2 °F 29.8 in WNW 2.3 mph 0.4 mph 34% 0 in 325.00 W/m2 CLR
16:05 87.1 °F 54.5 °F 29.8 in Calm   1 mph 33% 0 in 308.00 W/m2 CLR
16:09 87.1 °F 54.5 °F 29.8 in North 3.5 mph 2.9 mph 33% 0 in 290.00 W/m2 CLR
16:14 87.3 °F 53.8 °F 29.8 in North 2 mph 0.2 mph 32% 0 in 276.00 W/m2 CLR
16:19 86.9 °F 54.3 °F 29.8 in WSW 2.3 mph 1 mph 33% 0 in 258.00 W/m2 CLR
16:25 86.7 °F 55 °F 29.8 in Calm   2 mph 34% 0 in 236.00 W/m2 CLR
16:29 86.7 °F 55 °F 29.8 in WNW 1.2 mph 0.2 mph 34% 0 in 213.00 W/m2 CLR
16:35 86.5 °F 54.9 °F 29.8 in Calm   2 mph 34% 0 in 190.00 W/m2 CLR
16:39 86.4 °F 54.7 °F 29.8 in NW 1.2 mph 0.5 mph 34% 0 in 167.00 W/m2 CLR
16:45 86.4 °F 54.7 °F 29.8 in Calm   2 mph 34% 0 in 142.00 W/m2 CLR
16:49 86 °F 54.3 °F 29.8 in WNW 1.2 mph 0.5 mph 34% 0 in 23.00 W/m2 CLR
16:54 85.6 °F 54 °F 29.8 in West 2.3 mph 0.3 mph 34% 0 in 21.00 W/m2 CLR
16:59 85.3 °F 54.5 °F 29.8 in WSW 1.2 mph 0.6 mph 35% 0 in 19.00 W/m2 CLR
17:04 84.6 °F 54 °F 29.8 in West 2.3 mph 0.7 mph 35% 0 in 19.00 W/m2 FEW
17:09 83.8 °F 54.1 °F 29.8 in WNW 2.3 mph 0.2 mph 36% 0 in 18.00 W/m2 FEW
17:15 83.5 °F 53.8 °F 29.8 in Calm   3 mph 36% 0 in 16.00 W/m2 FEW
17:19 82.9 °F 54 °F 29.8 in NW 3.5 mph 0.8 mph 37% 0 in 14.00 W/m2 FEW
17:24 82.8 °F 53.8 °F 29.8 in WSW 1.2 mph 0.1 mph 37% 0 in 12.00 W/m2 FEW
17:29 82.4 °F 53.4 °F 29.8 in West 2.3 mph 0.5 mph 37% 0 in 11.00 W/m2 FEW
17:35 82 °F 53.2 °F 29.8 in Calm   1 mph 37% 0 in 9.00 W/m2 FEW
17:39 81.9 °F 53.8 °F 29.8 in West 1.2 mph 0.1 mph 38% 0 in 7.00 W/m2 FEW
17:45 81.5 °F 53.4 °F 29.8 in Calm   2 mph 38% 0 in 5.00 W/m2 FEW
17:49 81.1 °F 53.1 °F 29.8 in West 1.2 mph   38% 0 in 0.00 W/m2 FEW
17:54 80.8 °F 52.2 °F 29.8 in West 1 mph 0.1 mph 37% 0 in 0.00 W/m2 FEW
17:59 80.4 °F 52.5 °F 29.8 in West 1.2 mph 0.2 mph 38% 0 in 0.00 W/m2 FEW
18:05 80.1 °F 52.2 °F 29.8 in Calm     38% 0 in 0.00 W/m2 BKN
18:09 79.9 °F 52.5 °F 29.8 in Calm     39% 0 in 0.00 W/m2 BKN
18:15 79.5 °F 52.3 °F 29.8 in Calm   1 mph 39% 0 in 0.00 W/m2 BKN
18:19 79.3 °F 52.9 °F 29.9 in Calm     40% 0 in 0.00 W/m2 BKN
18:25 79.2 °F 53.4 °F 29.9 in Calm   1 mph 41% 0 in 0.00 W/m2 BKN
18:29 78.6 °F 53.8 °F 29.9 in North 3.5 mph 0.4 mph 42% 0 in 0.00 W/m2 BKN
18:35 78.3 °F 55 °F 29.9 in NNW 1 mph 4 mph 45% 0 in 0.00 W/m2 BKN
18:39 77.7 °F 55.2 °F 29.9 in NNE 4.6 mph 2 mph 46% 0 in 0.00 W/m2 BKN
18:44 77.2 °F 55.4 °F 29.9 in North 3.5 mph 1 mph 47% 0 in 0.00 W/m2 BKN
18:49 76.6 °F 55 °F 29.9 in NNE 3.5 mph 0.7 mph 47% 0 in 0.00 W/m2 BKN
18:55 76.3 °F 55.2 °F 29.9 in NNE 1 mph 3 mph 48% 0 in 0.00 W/m2 BKN
18:59 75.9 °F 55.6 °F 29.9 in NNE 2.3 mph 0.7 mph 49% 0 in 0.00 W/m2 BKN
19:05 75.7 °F 55.2 °F 29.9 in NNE 2 mph 4 mph 49% 0 in 0.00 W/m2 SCT
Countryside Manor, Tucson, AZ, USA